EW8702 Weather Reports


Display with metric or nautical units.
time (UTC)temp
F
wind
direction
speed
MPH
gust
MPH
rain 1hr
in
rain 24hr
in
rain mn
in
humidity
%
barometer
mb
20260906235122 79 143 2.0 7.0 0.00 0.00 0.00 31 1013.2
20260906234122 79 126 1.0 3.0 0.00 0.00 0.00 31 1013.5
20260906233122 79 160 2.0 5.0 0.00 0.00 0.00 30 1013.5
20260906232122 79 172 2.0 8.0 0.00 0.00 0.00 29 1013.7
20260906231122 79 158 2.0 6.0 0.00 0.00 0.00 29 1013.9
20260906230122 79 176 3.0 8.0 0.00 0.00 0.00 30 1014.0
20260906225143 80 171 4.0 10.0 0.00 0.00 0.00 29 1014.1
20260906224122 80 185 2.0 6.0 0.00 0.00 0.00 30 1013.9
20260906223122 80 185 3.0 11.0 0.00 0.00 0.00 34 1014.0
20260906222122 81 202 4.0 15.0 0.00 0.00 0.00 28 1014.2
20260906221122 81 181 4.0 12.0 0.00 0.00 0.00 28 1014.4
20260906220122 80 196 4.0 13.0 0.00 0.00 0.00 33 1014.7
20260906215143 80 192 5.0 13.0 0.00 0.00 0.00 29 1014.5
20260906214122 81 188 5.0 15.0 0.00 0.00 0.00 27 1014.3
20260906213122 81 197 3.0 9.0 0.00 0.00 0.00 29 1014.4
20260906212122 81 199 4.0 8.0 0.00 0.00 0.00 31 1014.5
20260906211122 81 193 6.0 15.0 0.00 0.00 0.00 27 1014.6
20260906210122 81 201 5.0 12.0 0.00 0.00 0.00 27 1014.5
20260906205122 81 203 5.0 11.0 0.00 0.00 0.00 28 1014.5
20260906204122 82 192 3.0 8.0 0.00 0.00 0.00 26 1014.9
20260906203122 82 174 2.0 6.0 0.00 0.00 0.00 26 1015.0
20260906202143 82 193 7.0 16.0 0.00 0.00 0.00 30 1015.1
20260906201122 82 190 4.0 9.0 0.00 0.00 0.00 26 1015.2
20260906200143 80 193 6.0 17.0 0.00 0.00 0.00 26 1015.2
20260906195122 81 204 6.0 13.0 0.00 0.00 0.00 26 1015.3
20260906194122 81 207 5.0 10.0 0.00 0.00 0.00 25 1015.5
20260906193122 80 199 5.0 10.0 0.00 0.00 0.00 27 1015.6
20260906192122 80 200 5.0 11.0 0.00 0.00 0.00 26 1015.5
20260906191143 81 199 6.0 15.0 0.00 0.00 0.00 26 1015.6
20260906190122 81 211 6.0 13.0 0.00 0.00 0.00 25 1016.0
20260906185122 82 193 5.0 16.0 0.00 0.00 0.00 24 1016.0
20260906184122 82 185 4.0 8.0 0.00 0.00 0.00 25 1016.0
20260906183122 81 193 4.0 8.0 0.00 0.00 0.00 28 1016.0
20260906182122 80 206 6.0 16.0 0.00 0.00 0.00 26 1016.2
20260906181143 80 203 6.0 15.0 0.00 0.00 0.00 26 1016.4
20260906180122 80 198 6.0 12.0 0.00 0.00 0.00 27 1016.4
20260906175122 80 202 6.0 16.0 0.00 0.00 0.00 24 1016.6
20260906174122 80 203 6.0 16.0 0.00 0.00 0.00 23 1016.8
20260906173122 80 201 5.0 13.0 0.00 0.00 0.00 25 1016.8
20260906172122 80 201 6.0 12.0 0.00 0.00 0.00 24 1016.8
20260906171122 79 210 5.0 12.0 0.00 0.00 0.00 27 1016.9
20260906170122 79 181 4.0 9.0 0.00 0.00 0.00 25 1017.0
20260906165122 79 199 4.0 15.0 0.00 0.00 0.00 31 1017.1
20260906164143 78 141 3.0 7.0 0.00 0.00 0.00 27 1017.2
20260906163122 77 108 2.0 6.0 0.00 0.00 0.00 31 1017.1
20260906162122 75 183 3.0 8.0 0.00 0.00 0.00 31 1017.3
20260906161124 73 135 1.0 4.0 0.00 0.00 0.00 40 1017.4
20260906160122 71 113 2.0 7.0 0.00 0.00 0.00 37 1017.4
20260906155143 68 162 2.0 4.0 0.00 0.00 0.00 49 1017.5
20260906154122 66 228 1.0 3.0 0.00 0.00 0.00 49 1017.7
20260906153122 63 244 1.0 3.0 0.00 0.00 0.00 51 1017.7
20260906152143 61 254 0.0 2.0 0.00 0.00 0.00 53 1017.6
20260906151122 58 254 0.0 2.0 0.00 0.00 0.00 53 1017.5
20260906150122 57 253 0.0 1.0 0.00 0.00 0.00 59 1017.6
20260906145122 55 0 0.0 1.0 0.00 0.00 0.00 60 1017.7
20260906144122 55 0 0.0 1.0 0.00 0.00 0.00 63 1017.6
20260906143122 54 0 0.0 1.0 0.00 0.00 0.00 62 1017.6
20260906142122 53 0 0.0 1.0 0.00 0.00 0.00 63 1017.5
20260906141122 52 0 0.0 0.0 0.00 0.00 0.00 61 1017.5
20260906140121 52 337 0.0 1.0 0.00 0.00 0.00 61 1017.5
20260906135121 51 336 0.0 1.0 0.00 0.00 0.00 59 1017.6
20260906134122 51 336 0.0 1.0 0.00 0.00 0.00 58 1017.4
20260906133121 51 336 1.0 2.0 0.00 0.00 0.00 58 1017.3
20260906132122 52 336 0.0 1.0 0.00 0.00 0.00 57 1017.2
20260906131121 52 336 0.0 2.0 0.00 0.00 0.00 55 1017.1
20260906130121 52 341 0.0 3.0 0.00 0.00 0.00 55 1017.1
20260906125143 51 348 0.0 3.0 0.00 0.00 0.00 56 1017.2
20260906124121 51 317 2.0 5.0 0.00 0.00 0.00 57 1017.2
20260906123143 51 280 0.0 3.0 0.00 0.00 0.00 58 1017.2
20260906121122 52 278 0.0 1.0 0.00 0.00 0.00 58 1017.2
20260906120143 52 338 0.0 1.0 0.00 0.00 0.00 57 1017.2
20260906115122 52 0 0.0 0.0 0.00 0.00 0.00 56 1017.1
20260906114122 52 0 0.0 0.0 0.00 0.00 0.00 55 1017.1
20260906113122 52 0 0.0 0.0 0.00 0.00 0.00 54 1017.1
20260906112122 52 0 0.0 0.0 0.00 0.00 0.00 55 1017.1
20260906111122 53 338 0.0 2.0 0.00 0.00 0.00 54 1017.1
20260906110122 54 337 0.0 2.0 0.00 0.00 0.00 55 1017.1
20260906105122 54 0 0.0 0.0 0.00 0.00 0.00 52 1017.0
20260906104122 54 0 0.0 0.0 0.00 0.00 0.00 51 1017.0
20260906103122 54 0 0.0 0.0 0.00 0.00 0.00 50 1017.0
20260906102122 54 339 0.0 2.0 0.00 0.00 0.00 51 1016.7
20260906101122 54 0 0.0 0.0 0.00 0.00 0.00 51 1016.8
20260906100123 54 339 0.0 2.0 0.00 0.00 0.00 51 1016.9
20260906095143 53 0 0.0 0.0 0.00 0.00 0.00 53 1016.9
20260906094122 53 0 0.0 0.0 0.00 0.00 0.00 54 1016.8
20260906093122 53 259 0.0 2.0 0.00 0.00 0.00 53 1016.8
20260906092122 53 259 0.0 3.0 0.00 0.00 0.00 53 1016.8
20260906091122 53 259 0.0 2.0 0.00 0.00 0.00 55 1016.6
20260906090122 53 0 0.0 1.0 0.00 0.00 0.00 55 1016.6
20260906085122 54 256 1.0 3.0 0.00 0.00 0.00 54 1016.6
20260906084122 54 249 0.0 2.0 0.00 0.00 0.00 55 1016.6
20260906083122 55 249 0.0 1.0 0.00 0.00 0.00 54 1016.6
20260906082122 55 249 1.0 2.0 0.00 0.00 0.00 52 1016.6
20260906081122 55 244 1.0 3.0 0.00 0.00 0.00 52 1016.6
20260906080122 56 242 0.0 2.0 0.00 0.00 0.00 52 1016.8
20260906075143 56 0 0.0 0.0 0.00 0.00 0.00 51 1016.8
20260906074122 56 243 0.0 1.0 0.00 0.00 0.00 49 1016.8
20260906073122 56 243 0.0 2.0 0.00 0.00 0.00 51 1016.7
20260906072122 57 0 0.0 0.0 0.00 0.00 0.00 51 1016.8
20260906071122 56 276 0.0 1.0 0.00 0.00 0.00 54 1016.6
20260906070143 56 276 0.0 1.0 0.00 0.00 0.00 50 1016.7
20260906065122 57 276 0.0 2.0 0.00 0.00 0.00 50 1016.6
20260906064122 58 280 1.0 2.0 0.00 0.00 0.00 49 1016.6
20260906063122 58 0 0.0 0.0 0.00 0.00 0.00 44 1016.5
20260906062122 57 332 0.0 1.0 0.00 0.00 0.00 46 1016.6
20260906061122 57 332 0.0 3.0 0.00 0.00 0.00 45 1016.4
20260906060122 57 336 0.0 3.0 0.00 0.00 0.00 48 1016.4
20260906055122 58 352 0.0 2.0 0.00 0.00 0.00 49 1016.3
20260906054122 58 352 0.0 2.0 0.00 0.00 0.00 48 1016.3
20260906053122 58 302 1.0 3.0 0.00 0.00 0.00 51 1016.3
20260906052122 59 324 1.0 3.0 0.00 0.00 0.00 48 1016.4
20260906051122 59 352 0.0 1.0 0.00 0.00 0.00 46 1016.4
20260906050122 59 300 1.0 6.0 0.00 0.00 0.00 46 1016.3
20260906045122 60 338 1.0 2.0 0.00 0.00 0.00 46 1016.4
20260906044143 60 0 0.0 1.0 0.00 0.00 0.00 42 1016.4
20260906043122 61 320 1.0 3.0 0.00 0.00 0.00 43 1016.3
20260906042122 62 313 0.0 2.0 0.00 0.00 0.00 42 1016.3
20260906041122 63 0 0.0 0.0 0.00 0.00 0.00 41 1016.2
20260906040122 63 0 0.0 0.0 0.00 0.00 0.00 40 1016.1
20260906035122 63 352 0.0 1.0 0.00 0.00 0.00 38 1016.0
20260906034122 63 339 2.0 4.0 0.00 0.00 0.00 39 1015.9
20260906033122 65 252 0.0 2.0 0.00 0.00 0.00 42 1015.8
20260906032122 66 0 0.0 0.0 0.00 0.00 0.00 35 1015.7
20260906031122 67 0 0.0 1.0 0.00 0.00 0.00 37 1015.6
20260906030122 68 250 0.0 1.0 0.00 0.00 0.00 35 1015.5
20260906025122 69 250 0.0 2.0 0.00 0.00 0.00 33 1015.4
20260906024143 71 0 0.0 1.0 0.00 0.00 0.00 30 1015.2
20260906023122 71 318 1.0 3.0 0.00 0.00 0.00 27 1015.1
20260906022122 72 284 0.0 3.0 0.00 0.00 0.00 29 1015.0
20260906021122 73 14 1.0 6.0 0.00 0.00 0.00 24 1014.9
20260906020122 74 0 0.0 0.0 0.00 0.00 0.00 22 1014.9
20260906015122 75 193 0.0 1.0 0.00 0.00 0.00 24 1015.0
20260906014122 77 193 0.0 1.0 0.00 0.00 0.00 22 1015.0
20260906013143 78 0 0.0 0.0 0.00 0.00 0.00 22 1015.0
20260906012122 80 193 0.0 1.0 0.00 0.00 0.00 21 1015.2
20260906011143 81 192 0.0 2.0 0.00 0.00 0.00 22 1015.2
20260906010122 82 0 0.0 0.0 0.00 0.00 0.00 20 1015.2
20260906005122 82 203 0.0 2.0 0.00 0.00 0.00 16 1015.2
20260906004122 82 204 0.0 2.0 0.00 0.00 0.00 17 1015.1
20260906003122 82 202 1.0 3.0 0.00 0.00 0.00 17 1015.2
20260906002122 83 198 4.0 10.0 0.00 0.00 0.00 19 1015.2
20260906001122 83 180 2.0 7.0 0.00 0.00 0.00 14 1015.2
20260906000122 83 173 4.0 8.0 0.00 0.00 0.00 13 1015.2